FW5729 Weather Reports


Display with metric or nautical units.
time (UTC)temp
F
wind
direction
speed
MPH
gust
MPH
rain 1hr
in
rain 24hr
in
rain mn
in
humidity
%
barometer
mb
20260509100034 70 0 1.0 2.0 0.00 0.00 0.00 96 1010.8
20260509094535 70 0 0.0 0.0 0.00 0.00 0.00 96 1010.2
20260509093035 70 0 0.0 0.0 0.00 0.00 0.00 96 1009.9
20260509091534 70 0 0.0 0.0 0.00 0.00 0.00 96 1009.8
20260509090032 70 0 0.0 0.0 0.00 0.00 0.00 96 1009.9
20260509084539 70 0 0.0 0.0 0.00 0.00 0.00 96 1009.9
20260509083041 70 0 0.0 0.0 0.00 0.00 0.00 96 1010.1
20260509081534 70 0 0.0 0.0 0.00 0.00 0.00 95 1010.4
20260509080037 70 0 0.0 0.0 0.00 0.00 0.00 95 1010.4
20260509074533 70 0 0.0 0.0 0.00 0.00 0.00 94 1010.1
20260509073037 70 0 0.0 0.0 0.00 0.00 0.00 94 1010.2
20260509071532 70 0 0.0 3.0 0.00 0.00 0.00 94 1010.6
20260509070035 70 0 0.0 0.0 0.00 0.00 0.00 94 1010.7
20260509064540 70 0 0.0 0.0 0.00 0.00 0.00 94 1010.3
20260509063032 70 0 0.0 0.0 0.00 0.00 0.00 93 1010.2
20260509061532 70 0 0.0 0.0 0.00 0.00 0.00 94 1010.7
20260509060033 70 0 0.0 1.0 0.00 0.00 0.00 94 1010.1
20260509054536 70 0 0.0 0.0 0.00 0.00 0.00 94 1009.8
20260509053032 70 0 0.0 2.0 0.00 0.00 0.00 94 1009.9
20260509051536 70 0 0.0 2.0 0.00 0.00 0.00 93 1009.4
20260509050039 70 0 0.0 0.0 0.00 0.00 0.00 93 1009.0
20260509044534 70 0 0.0 0.0 0.00 0.00 0.00 92 1008.9
20260509043033 70 0 0.0 0.0 0.00 0.00 0.00 91 1009.2
20260509041532 71 0 0.0 0.0 0.00 0.00 0.00 91 1009.6
20260509040043 71 0 0.0 1.0 0.00 0.00 0.00 90 1009.4
20260509034549 71 0 0.0 2.0 0.00 0.00 0.00 90 1009.2
20260509033034 71 0 0.0 1.0 0.00 0.00 0.00 89 1009.3
20260509031535 72 0 0.0 2.0 0.00 0.00 0.00 88 1009.1
20260509030040 72 0 0.0 1.0 0.00 0.00 0.00 87 1009.3
20260509024540 73 0 0.0 2.0 0.00 0.00 0.00 86 1009.1
20260509023035 73 0 0.0 1.0 0.00 0.00 0.00 85 1008.9
20260509021535 74 0 0.0 0.0 0.00 0.00 0.00 84 1008.2
20260509020032 74 0 0.0 2.0 0.00 0.00 0.00 83 1008.1
20260509014533 75 0 0.0 5.0 0.00 0.00 0.00 82 1008.1
20260509013033 75 0 1.0 4.0 0.00 0.00 0.00 80 1007.8
20260509011532 76 0 1.0 6.0 0.00 0.00 0.00 79 1007.8
20260509010037 76 215 0.0 3.0 0.00 0.00 0.00 79 1007.7
20260509004535 77 0 0.0 1.0 0.00 0.00 0.00 78 1008.0
20260509003032 77 0 0.0 1.0 0.00 0.00 0.00 77 1007.9
20260509001538 77 0 0.0 2.0 0.00 0.00 0.00 77 1008.0
20260509000029 77 0 0.0 3.0 0.00 0.00 0.00 77 1008.0
20260508234533 77 212 0.0 1.0 0.00 0.00 0.00 77 1008.2
20260508233033 77 0 0.0 1.0 0.00 0.00 0.00 77 1008.1
20260508231534 77 0 0.0 0.0 0.00 0.00 0.00 79 1008.0
20260508230055 77 0 0.0 3.0 0.00 0.00 0.00 78 1008.0
20260508224540 77 0 1.0 5.0 0.00 0.00 0.00 77 1008.0
20260508223044 77 0 1.0 4.0 0.00 0.00 0.00 77 1008.1
20260508221535 77 0 0.0 8.0 0.00 0.00 0.00 75 1008.2
20260508220033 78 0 2.0 5.0 0.00 0.00 0.00 74 1008.3
20260508214550 79 75 0.0 6.0 0.00 0.00 0.00 72 1008.3
20260508213031 78 69 2.0 5.0 0.00 0.00 0.00 72 1008.4
20260508211536 80 41 0.0 3.0 0.00 0.00 0.00 69 1008.5
20260508210037 79 72 1.0 4.0 0.00 0.00 0.00 73 1008.8
20260508204536 77 0 0.0 5.0 0.00 0.00 0.00 73 1009.2
20260508203032 77 63 2.0 4.0 0.00 0.00 0.00 74 1009.3
20260508201532 77 57 2.0 8.0 0.00 0.00 0.00 73 1009.6
20260508200041 78 49 3.0 9.0 0.00 0.00 0.00 71 1009.7
20260508194533 78 52 2.0 5.0 0.00 0.00 0.00 72 1009.7
20260508193051 76 61 4.0 8.0 0.00 0.00 0.00 73 1010.0
20260508191542 76 66 3.0 5.0 0.00 0.00 0.00 73 1010.1
20260508190051 75 0 0.0 4.0 0.00 0.00 0.00 75 1010.6
20260508184536 75 59 3.0 4.0 0.00 0.00 0.00 75 1010.5
20260508183041 75 53 0.0 6.0 0.00 0.00 0.00 74 1010.7
20260508181539 75 0 0.0 6.0 0.00 0.00 0.00 75 1011.1
20260508180055 74 75 3.0 6.0 0.00 0.00 0.00 74 1011.2
20260508174549 73 56 3.0 8.0 0.00 0.00 0.00 75 1011.1
20260508173034 72 63 4.0 6.0 0.00 0.00 0.00 76 1011.4
20260508171534 72 53 0.0 5.0 0.00 0.00 0.00 78 1011.7
20260508170036 70 0 1.0 7.0 0.00 0.00 0.00 77 1012.0
20260508164546 71 66 0.0 3.0 0.00 0.00 0.00 76 1012.2
20260508163035 68 0 0.0 2.0 0.00 0.00 0.00 77 1012.6
20260508161535 67 82 0.0 0.0 0.00 0.00 0.00 80 1012.8
20260508160036 65 0 0.0 0.0 0.00 0.00 0.00 81 1012.8
20260508154535 66 0 0.0 0.0 0.00 0.00 0.00 80 1013.1
20260508153045 66 0 0.0 0.0 0.00 0.00 0.00 81 1013.2
20260508151538 65 0 0.0 2.0 0.00 0.00 0.00 81 1013.2
20260508150034 65 209 0.0 1.0 0.00 0.00 0.00 80 1013.0
20260508144536 65 0 0.0 0.0 0.00 0.00 0.00 80 1013.0
20260508143031 65 0 0.0 0.0 0.00 0.00 0.00 81 1013.1
20260508141535 65 0 0.0 0.0 0.00 0.00 0.00 79 1013.0
20260508140033 64 0 0.0 0.0 0.00 0.00 0.00 80 1012.9
20260508134536 63 0 0.0 1.0 0.00 0.00 0.00 82 1013.1
20260508133033 62 0 0.0 5.0 0.00 0.00 0.00 82 1013.1
20260508131532 61 0 0.0 3.0 0.00 0.00 0.00 83 1013.0
20260508130041 61 0 0.0 0.0 0.00 0.00 0.00 86 1013.5
20260508124536 60 0 0.0 0.0 0.00 0.00 0.00 85 1013.5
20260508123036 60 0 0.0 0.0 0.00 0.00 0.00 85 1013.6
20260508121534 60 0 0.0 2.0 0.00 0.00 0.00 84 1013.5
20260508120036 60 0 0.0 2.0 0.00 0.00 0.00 84 1013.4
20260508114553 60 0 0.0 0.0 0.00 0.00 0.00 86 1013.6
20260508113030 60 0 0.0 0.0 0.00 0.00 0.00 86 1013.9
20260508111538 60 0 0.0 0.0 0.00 0.00 0.00 87 1013.7
20260508110034 60 0 0.0 0.0 0.00 0.00 0.00 85 1013.9
20260508104538 59 0 0.0 0.0 0.00 0.00 0.00 86 1013.6
20260508103051 59 0 0.0 0.0 0.00 0.00 0.00 87 1013.4
20260508101550 59 66 3.0 4.0 0.00 0.00 0.00 87 1013.5